Regional Weather Roundup
Issued by NWS

Home | Current Version | Previous Version | Text Only | Print | Product List | Glossary On
Versions: 1 2 3 4 5 6 7 8 9 10 11 12 13 14 15 16 17 18 19 20 21 22 23 24 25 26 27 28 29 30 31 32 33 34 35 36 37 38 39 40 41 42 43 44 45 46 47 48 49 50
000
ASUS43 KLMK 022210
RWRKY
KENTUCKY REGIONAL WEATHER ROUNDUP
NATIONAL WEATHER SERVICE LOUISVILLE KY
600 PM EDT MON MAY 02 2016

NOTE "FAIR" INDICATES FEW OR NO CLOUDS BELOW 12,000 FEET
WITH NO SIGNIFICANT WEATHER AND/OR OBSTRUCTIONS TO VISIBILITY.

KYZ001>023-026-027-061>063-070>075-022300-
WESTERN AND SOUTH CENTRAL KENTUCKY

CITY           SKY/WX    TMP DP  RH WIND       PRES   REMARKS
PADUCAH        CLOUDY    66  52  60 N12       29.95F
HENDERSON      CLOUDY    63  48  59 NW10      29.95F
OWENSBORO      CLOUDY    64  53  67 NW13      29.95S
HOPKINSVILLE   CLOUDY    61  55  82 W6        29.95R
BOWLING GREEN  CLOUDY    62  56  80 W7        29.94S
GLASGOW        CLOUDY    59  59 100 NW3       29.93S
$$

KYZ024-025-028>034-038-045-046-053-022300-
NORTH CENTRAL KENTUCKY

CITY           SKY/WX    TMP DP  RH WIND       PRES   REMARKS
LOUISVILLE/SDF CLOUDY    65  51  60 NW9       29.92S
LOUISVILLE/LOU CLOUDY    65  53  65 NW8       29.93R
FORT KNOX      PTSUNNY   64  53  66 NW6       29.91F
$$

KYZ035>037-039>044-047>052-055>060-089>105-022300-
NORTHEAST KENTUCKY

CITY           SKY/WX    TMP DP  RH WIND       PRES   REMARKS
LEXINGTON      CLOUDY    64  58  80 S8        29.93S
COVINGTON      CLOUDY    64  52  64 W9        29.92S
FRANKFORT      CLOUDY    66  53  63 NW7       29.92R
$$

KYZ054-064>069-076>088-106>120-022300-
SOUTHEAST KENTUCKY

CITY           SKY/WX    TMP DP  RH WIND       PRES   REMARKS
JACKSON        LGT RAIN  59  57  93 VRB5      29.95F FOG
LONDON         CLOUDY    60  58  92 CALM      29.93F
SOMERSET       RAIN      59  59 100 CALM      29.95S
MIDDLESBORO    CLOUDY    60  59  96 E5        29.96F
MONTICELLO     LGT RAIN  62  60  93 N12       29.94S
$$




USA.gov is the U.S. government's official web portal to all federal, state and local government web resources and services.